Regional Weather Roundup
Issued by NWS

Home | Current Version | Previous Version | Graphics & Text | Print | Product List | Glossary On
Versions: 1 2 3 4 5 6 7 8 9 10 11 12 13 14 15 16 17 18 19 20 21 22 23 24 25 26 27 28 29 30 31 32 33 34 35 36 37 38 39 40 41 42 43 44 45 46 47 48 49 50
085
ASUS44 KJAN 200703
RWRMS

MISSISSIPPI HOURLY WEATHER ROUNDUP
NATIONAL WEATHER SERVICE JACKSON MS
100 AM CST SAT DEC 20 2014

NOTE: "FAIR: INDICATES FEW OR NO CLOUDS BELOW 12,000 FEET WITH NO
SIGNIFICANT WEATHER AND/OR OBSTRUCTIONS TO VISIBILITY.

MSZ001>002-007>008-010>013-018>021-025>028-034>036-200800-
NORTHWEST MISSISSIPPI

CITY           SKY/WX    TMP DP  RH WIND       PRES   REMARKS
CLARKSDALE     FAIR      39  37  93 CALM      30.23F
CLEVELAND      CLOUDY    42  40  91 NE6       30.21F
GREENWOOD      CLOUDY    43  40  89 N7        30.20F
GREENVILLE     CLOUDY    44  39  82 N9        30.20F
GRENADA        CLOUDY    41  36  81 CALM      30.21F
OLIVE BRANCH   CLEAR     32  32 100 CALM      30.22F
OXFORD         CLOUDY    37  34  87 CALM      30.22F
TUNICA         SUNNY     36  34  93 N5        30.23F WCI  32
$$

MSZ003>006-009-014>017-022>024-029>033-037>039-200800-
NORTHEAST MISSISSIPPI

CITY           SKY/WX    TMP DP  RH WIND       PRES   REMARKS
COLUMBUS AFB   CLOUDY    41  38  89 N1        30.19F
CORINTH        CLOUDY    39  34  81 NW3       30.20S
GOLDN TRIANGLE CLOUDY    41  37  87 N7        30.17S
STARKVILLE     CLOUDY    41  39  93 N3        30.19R FOG
TUPELO         CLOUDY    39  34  82 N7        30.20F WCI  34
$$

MSZ040-058-200800-
CENTRAL MISSISSIPPI

CITY           SKY/WX    TMP DP  RH WIND       PRES   REMARKS
JACKSON INTL   CLOUDY    46  43  89 NE7       30.16F
JACKSON HAWKNS CLOUDY    46  42  86 E5        30.17S
MERIDIAN KEY   CLOUDY    43  41  93 N7        30.16F
MERIDIAN NAS   CLOUDY    43  41  93 N6        30.16F
RAYMOND        CLOUDY    45  41  87 CALM      30.16F
VICKSBURG      CLOUDY    46  44  93 N9        30.19S
$$

MSZ059>079-200800-
SOUTH MISSISSIPPI

CITY           SKY/WX    TMP DP  RH WIND       PRES   REMARKS
HATTIESBURG    LGT RAIN  47  45  93 N5        30.14R FOG
MCCOMB         CLOUDY    46  44  93 N10       30.11S
NATCHEZ        CLOUDY    46  43  87 N8        30.15R
PINE BELT      CLOUDY    45  43  93 N5        30.14R
$$

MSZ080>082-200800-
COASTAL MISSISSIPPI

CITY           SKY/WX    TMP DP  RH WIND       PRES   REMARKS
BILOXI         LGT RAIN  47  47 100 NE10      30.07S
PASCAGOULA     LGT RAIN  47  46  97 NE9       30.07F
GULFPORT       LGT RAIN  47  45  93 NE9       30.06F
$$



USA.gov is the U.S. government's official web portal to all federal, state and local government web resources and services.